Location: Bannatyne
(13.0833°N, 59.5333°W)
Time: 02:33:54
(UTC+00:00)

deb Explorer IX - Pass Details

Date: 30 January 2020
Orbit: 549 x 1099 km, 38.8° (Epoch: 19 February)

Event Time Altitude Azimuth Distance (km) Brightness Sun altitude
Rises 04:23:30 0° 327° (NNW) 3,887 - -84.4°
Reaches altitude 10° 04:27:30 10° 347° (NNW) 2,943 - -83.9°
Maximum altitude 04:31:51 17° 24° (NNE) 2,469 - -83.2°
Drops below altitude 10° 04:36:06 10° 61° (ENE) 2,872 - -82.4°
Sets 04:39:54 0° 81° (E) 3,753 - -81.6°
